Baudette, MN

5:16 AM CDT on July 30, 2016 (GMT -0500)
Baudette International

Weather History for KBDE - August, 2013

Change the Weather History Date:

Tuesday, August 13, 2013

  Actual Average Record
Temperature  
Mean Temperature 56 °F -  
Max Temperature 70 °F 78 °F 93 °F (1970)
Min Temperature 43 °F 54 °F 35 °F (1964)
Degree Days  
Heating Degree Days 8    
Growing Degree Days 6 (Base 50)    
Moisture  
Dew Point 46 °F    
Average Humidity 68    
Maximum Humidity 100    
Minimum Humidity 38    
Precipitation  
Precipitation 0.00 in - - ()
Sea Level Pressure  
Sea Level Pressure 30.22 in    
Wind  
Wind Speed 2 mph (NNE)    
Max Wind Speed 9 mph    
Max Gust Speed -    
Visibility 10 miles    
Events      
Averages and records for this station are not official NWS values.
T = Trace of Precipitation, MM = Missing Value Source: NWS Daily Summary

Daily Weather History Graph

Daily Weather History Graph

Search for Another Location

Airport or City:

Trip Planner

Search our weather history database for the weather conditions in past years. The results will help you decide how hot, cold, wet, or windy it might be!

Date:

Astronomy

Aug. 13, 2013 Rise Set
Actual Time 6:09 AM CDT 8:36 PM CDT
Civil Twilight 5:33 AM CDT 9:11 PM CDT
Nautical Twilight 4:49 AM CDT 9:55 PM CDT
Astronomical Twilight 3:58 AM CDT 10:46 PM CDT
Moon 1:44 PM CDT (8/13) 11:30 PM CDT (8/13)
Length of Visible Light 15h 37m
Length of Day
14h 27m
Waxing Crescent, 42% of the Moon is Illuminated
Aug 13
Waxing Crescent
Aug 14
First Quarter
Aug 20
Full
Aug 28
Last Quarter
Sep 5
New

Hourly Weather History & Observations

Time (CDT) Temp. Dew Point Humidity Pressure Visibility Wind Dir Wind Speed Gust Speed Precip Events Conditions
12:53 AM 48.0 °F 46.0 °F 93% 30.17 in 10.0 mi Calm Calm - N/A   Mostly Cloudy
1:53 AM 48.9 °F 46.9 °F 93% 30.19 in 10.0 mi Calm Calm - N/A   Overcast
2:53 AM 46.9 °F 45.0 °F 93% 30.20 in 10.0 mi Calm Calm - N/A   Clear
3:53 AM 46.0 °F 44.1 °F 93% 30.20 in 10.0 mi Calm Calm - N/A   Clear
4:53 AM 44.1 °F 43.0 °F 96% 30.20 in 10.0 mi Calm Calm - N/A   Clear
5:53 AM 44.1 °F 42.1 °F 93% 30.21 in 10.0 mi Calm Calm - N/A   Clear
6:53 AM 43.0 °F 43.0 °F 100% 30.22 in 10.0 mi Calm Calm - N/A   Clear
7:53 AM 53.1 °F 50.0 °F 89% 30.24 in 10.0 mi Calm Calm - N/A   Clear
8:53 AM 59.0 °F 50.0 °F 72% 30.25 in 10.0 mi Calm Calm - N/A   Clear
9:53 AM 62.1 °F 51.1 °F 67% 30.25 in 10.0 mi Calm Calm - N/A   Clear
10:53 AM 64.9 °F 46.0 °F 50% 30.25 in 10.0 mi NNE 5.8 mph - N/A   Clear
11:53 AM 64.9 °F 45.0 °F 48% 30.26 in 10.0 mi North 5.8 mph - N/A   Mostly Cloudy
12:53 PM 66.0 °F 43.0 °F 43% 30.25 in 10.0 mi North 4.6 mph - N/A   Scattered Clouds
1:53 PM 69.1 °F 45.0 °F 42% 30.25 in 10.0 mi NNW 4.6 mph - N/A   Partly Cloudy
2:53 PM 69.1 °F 44.1 °F 40% 30.24 in 10.0 mi NNW 8.1 mph - N/A   Clear
3:53 PM 69.1 °F 42.1 °F 38% 30.23 in 10.0 mi NNW 9.2 mph - N/A   Clear
4:53 PM 70.0 °F 44.1 °F 39% 30.22 in 10.0 mi North 8.1 mph - N/A   Clear
5:53 PM 70.0 °F 44.1 °F 39% 30.22 in 10.0 mi North 4.6 mph - N/A   Clear
6:53 PM 69.1 °F 46.0 °F 44% 30.21 in 10.0 mi North 3.5 mph - N/A   Clear
7:53 PM 63.0 °F 51.1 °F 65% 30.19 in 10.0 mi North 3.5 mph - N/A   Clear
8:53 PM 60.1 °F 51.1 °F 72% 30.19 in 10.0 mi Calm Calm - N/A   Partly Cloudy
9:53 PM 57.0 °F 48.9 °F 74% 30.19 in 10.0 mi East 4.6 mph - N/A   Scattered Clouds
10:53 PM 57.9 °F 48.0 °F 70% 30.21 in 10.0 mi SSE 3.5 mph - N/A   Overcast
11:53 PM 55.9 °F 48.0 °F 75% 30.22 in 10.0 mi ESE 4.6 mph - N/A   Mostly Cloudy